Printer-friendly version

IAU Minor Planet Center

Minor Planet Center

(129) Antigone

Orbital Elements

The following orbital elements are taken from MPO 2601
  (129) Antigone
Epoch 2005 Jan. 30.0 TT = JDT 2453400.5                 Williams
M 328.62470              (2000.0)            P               Q
n   0.20286031     Peri.  108.09683     -0.41482834     +0.89814100
a   2.8686088      Node   136.45695     -0.89418134     -0.37273696
e   0.2132966      Incl.   12.21934     -0.16839589     -0.23325930
P   4.86           H    7.07          G   0.33           U   0
From 871 observations at 50 oppositions, 1915-2000, mean residual 0".63.
An explanation of the orbital elements is available.

These orbital elements are also available in forms suitable for loading into a number of popular planetarium-type software programs.


Ephemeris

The following ephemeris is at intervals of five days. A daily ephemeris covering the same time interval is also available.

Personalized ephemerides for this object (and others) can be generated using the MPES.

Date    TT    R. A. (2000) Decl.     Delta      r     Elong.  Phase     V
 
2005 02 10    15 02.88   -04 00.7    2.050    2.376    96.7    24.4    11.4
2005 02 15    15 08.48   -03 50.8    1.984    2.368   100.3    24.2    11.3
2005 02 20    15 13.66   -03 37.1    1.919    2.361   104.0    24.0    11.2
2005 02 25    15 18.38   -03 19.8    1.855    2.354   107.7    23.6    11.2
2005 03 02    15 22.58   -02 58.8    1.793    2.347   111.6    23.1    11.1
2005 03 07    15 26.24   -02 34.2    1.734    2.340   115.6    22.5    11.0
2005 03 12    15 29.29   -02 06.3    1.677    2.333   119.6    21.7    10.9
2005 03 17    15 31.70   -01 35.3    1.622    2.327   123.7    20.8    10.8
2005 03 22    15 33.44   -01 01.6    1.571    2.321   127.9    19.8    10.7
2005 03 27    15 34.48   -00 25.8    1.524    2.315   132.2    18.6    10.6
2005 04 01    15 34.81   +00 11.6    1.480    2.310   136.5    17.3    10.5
2005 04 06    15 34.41   +00 50.0    1.441    2.304   140.7    15.9    10.4
2005 04 11    15 33.30   +01 28.4    1.406    2.299   144.9    14.5    10.3
2005 04 16    15 31.51   +02 05.7    1.376    2.294   148.9    13.1    10.2
2005 04 21    15 29.12   +02 41.0    1.351    2.290   152.5    11.7    10.1
2005 04 26    15 26.19   +03 13.2    1.331    2.286   155.5    10.5    10.0
2005 05 01    15 22.84   +03 41.3    1.318    2.282   157.6     9.7    10.0
2005 05 06    15 19.18   +04 04.2    1.309    2.278   158.4     9.4     9.9
2005 05 11    15 15.35   +04 21.1    1.307    2.274   157.8     9.7     9.9
2005 05 16    15 11.51   +04 31.3    1.310    2.271   155.9    10.5    10.0
2005 05 21    15 07.80   +04 34.5    1.319    2.269   153.1    11.7    10.0
2005 05 26    15 04.35   +04 30.5    1.334    2.266   149.6    13.1    10.1
2005 05 31    15 01.29   +04 19.5    1.353    2.264   145.7    14.6    10.1
2005 06 05    14 58.71   +04 01.6    1.377    2.262   141.6    16.2    10.2
2005 06 10    14 56.70   +03 37.4    1.406    2.260   137.4    17.7    10.3
2005 06 15    14 55.31   +03 07.2    1.438    2.259   133.3    19.1    10.4
2005 06 20    14 54.59   +02 32.0    1.475    2.258   129.1    20.4    10.5
2005 06 25    14 54.55   +01 52.2    1.514    2.257   125.1    21.6    10.6
2005 06 30    14 55.17   +01 08.6    1.557    2.257   121.1    22.7    10.7
2005 07 05    14 56.46   +00 21.7    1.602    2.257   117.3    23.6    10.7
2005 07 10    14 58.40   -00 27.9    1.650    2.257   113.5    24.4    10.8
2005 07 15    15 00.97   -01 19.5    1.700    2.258   109.9    25.0    10.9
2005 07 20    15 04.13   -02 12.8    1.751    2.258   106.4    25.6    11.0
2005 07 25    15 07.85   -03 07.1    1.804    2.260   102.9    26.0    11.1
2005 07 30    15 12.10   -04 02.2    1.858    2.261    99.6    26.3    11.1
2005 08 04    15 16.85   -04 57.6    1.914    2.263    96.3    26.5    11.2
2005 08 09    15 22.07   -05 53.1    1.970    2.265    93.2    26.5    11.3

Back to Bright Minor Planets

Astronomical Headlines Index

MPC


Valid HTML 4.01!